Location: Canyam�s
(41.5996°N, 2.4450°E)
Time: 21:32:37
(UTC+00:00)

Cosmos 1898 Rocket - Pass Details

Date: 06 June 2020
Orbit: 753 x 784 km, 74.0° (Epoch: 11 July)

Event Time Altitude Azimuth Distance (km) Brightness Sun altitude
Rises 23:26:28 0° 346° (NNW) 3,278 8.1 -25.4°
Reaches altitude 10° 23:29:00 10° 353° (N) 2,343 7.1 -25.5°
Maximum altitude 23:34:04 43° 65° (ENE) 1,081 4.3 -25.5°
Enters shadow 23:35:12 38° 97° (E) 1,175 4.3 -25.5°
